Weather History for Black River Falls, WI

Change the Weather History Date:

Tuesday, July 23, 2013

  Actual Average (KLSE) Record (KLSE)
Temperature  
Mean Temperature 62 °F 74 °F  
Max Temperature 73 °F 84 °F 102 °F (1934)
Min Temperature 51 °F 63 °F 49 °F (1887)
Degree Days  
Heating Degree Days 3 0  
Month to date heating degree days 0  
Since 1 July heating degree days 0  
Cooling Degree Days 0 9  
Month to date cooling degree days 206  
Year to date cooling degree days 420  
Growing Degree Days 12 (Base 50)    
Moisture  
Dew Point 53 °F    
Average Humidity 65    
Maximum Humidity 100    
Minimum Humidity 41    
Precipitation  
Precipitation 0.01 in 0.14 in 2.38 in (1883)
Month to date precipitation 3.17  
Year to date precipitation 18.58  
Snow  
Snow 0.00 in 0.00 in 0.00 in (2002)
Month to date snowfall 0.0  
Since 1 July snowfall 0.0  
Snow Depth -    
Sea Level Pressure  
Sea Level Pressure 29.92 in    
Wind  
Wind Speed 6 mph (North)    
Max Wind Speed 13 mph    
Max Gust Speed 18 mph    
Visibility 10 miles    
Events      
T = Trace of Precipitation, MM = Missing Value Source: NWS Daily Summary

Daily Weather History Graph

Daily Weather History Graph

Search for Another Location

Airport:

Trip Planner

Search our weather history database for the weather conditions in past years. The results will help you decide how hot, cold, wet, or windy it might be!

Date:

Astronomy

Jul. 23, 2013 Rise Set
Actual Time 5:41 AM CDT 8:37 PM CDT
Civil Twilight 5:07 AM CDT 9:11 PM CDT
Nautical Twilight 4:23 AM CDT 9:55 PM CDT
Astronomical Twilight 3:32 AM CDT 10:46 PM CDT
Moon 8:59 PM CDT (7/23) 6:55 AM CDT (7/23)
Length of Visible Light 16h 04m
Length of Day
14h 56m
Full, 99% of the Moon is Illuminated
Jul 23
Full
Jul 29
Last Quarter
Aug 6
New
Aug 14
First Quarter
Aug 20
Full

Hourly Weather History & Observations

Time (CDT) Temp. Dew Point Humidity Pressure Visibility Wind Dir Wind Speed Gust Speed Precip Events Conditions
12:15 AM 69.4 °F 60.8 °F 74% 29.78 in 10.0 mi North 10.4 mph - N/A   Scattered Clouds
12:35 AM 69.1 °F 59.5 °F 72% 29.79 in 10.0 mi North 5.8 mph - N/A   Mostly Cloudy
12:55 AM 68.4 °F 58.5 °F 71% 29.79 in 10.0 mi North 6.9 mph - N/A   Overcast
1:15 AM 67.8 °F 57.7 °F 70% 29.80 in 10.0 mi North 5.8 mph - N/A   Overcast
1:35 AM 67.3 °F 58.1 °F 72% 29.81 in 10.0 mi NNW 4.6 mph - N/A   Overcast
1:55 AM 66.2 °F 58.6 °F 77% 29.82 in 10.0 mi Calm Calm - N/A   Overcast
2:15 AM 65.7 °F 58.3 °F 77% 29.82 in 10.0 mi Calm Calm - N/A   Overcast
2:35 AM 65.3 °F 58.1 °F 77% 29.81 in 10.0 mi Calm Calm - N/A   Overcast
2:55 AM 64.8 °F 58.3 °F 79% 29.82 in 10.0 mi NW 3.5 mph - N/A   Overcast
3:15 AM 63.9 °F 57.6 °F 80% 29.81 in 10.0 mi NNW 3.5 mph - N/A   Mostly Cloudy
3:35 AM 63.0 °F 57.2 °F 81% 29.82 in 10.0 mi NW 3.5 mph - N/A   Clear
3:55 AM 61.7 °F 56.7 °F 84% 29.81 in 10.0 mi NW 3.5 mph - N/A   Clear
4:15 AM 60.6 °F 56.1 °F 85% 29.83 in 10.0 mi NW 3.5 mph - N/A   Clear
4:35 AM 59.2 °F 56.1 °F 90% 29.84 in 10.0 mi WNW 3.5 mph - N/A   Clear
4:55 AM 58.6 °F 55.9 °F 91% 29.83 in 10.0 mi Calm Calm - N/A   Clear
5:15 AM 58.1 °F 56.3 °F 94% 29.84 in 10.0 mi Calm Calm - N/A   Clear
5:35 AM 58.1 °F 56.7 °F 95% 29.84 in 10.0 mi Calm Calm - N/A   Clear
5:55 AM 57.2 °F 56.3 °F 97% 29.86 in 10.0 mi WNW 3.5 mph - N/A   Clear
6:15 AM 57.9 °F 56.8 °F 96% 29.86 in 10.0 mi NW 4.6 mph - N/A   Clear
6:35 AM 59.5 °F 57.2 °F 92% 29.87 in 10.0 mi NNW 5.8 mph - N/A   Clear
6:55 AM 61.0 °F 54.7 °F 80% 29.86 in 10.0 mi NNW 4.6 mph - N/A   Clear
7:15 AM 61.9 °F 54.9 °F 78% 29.88 in 10.0 mi NW 5.8 mph - N/A   Clear
7:35 AM 62.6 °F 54.7 °F 75% 29.88 in 10.0 mi NNW 3.5 mph - N/A   Clear
7:55 AM 63.7 °F 54.3 °F 72% 29.90 in 10.0 mi NNW 9.2 mph - N/A   Clear
8:15 AM 64.6 °F 53.8 °F 68% 29.91 in 10.0 mi North 9.2 mph - N/A   Clear
8:35 AM 64.9 °F 52.3 °F 64% 29.91 in 10.0 mi North 10.4 mph - N/A   Clear
8:55 AM 65.5 °F 51.8 °F 61% 29.91 in 10.0 mi North 12.7 mph - N/A   Clear
9:15 AM 66.0 °F 52.2 °F 61% 29.91 in 10.0 mi North 8.1 mph 16.1 mph N/A   Clear
9:35 AM 66.7 °F 52.0 °F 59% 29.92 in 10.0 mi NNW 10.4 mph - N/A   Scattered Clouds
9:55 AM 67.5 °F 51.8 °F 57% 29.92 in 10.0 mi NNW 9.2 mph - N/A   Scattered Clouds
10:15 AM 67.5 °F 52.2 °F 58% 29.92 in 10.0 mi North 8.1 mph - N/A   Scattered Clouds
10:35 AM 67.1 °F 50.5 °F 55% 29.94 in 10.0 mi North 12.7 mph - N/A   Scattered Clouds
10:55 AM 67.3 °F 49.8 °F 53% 29.96 in 10.0 mi North 6.9 mph 17.3 mph N/A   Mostly Cloudy
11:15 AM 68.4 °F 50.2 °F 52% 29.96 in 10.0 mi NW 12.7 mph 18.4 mph N/A   Mostly Cloudy
11:35 AM 68.2 °F 50.0 °F 52% 29.96 in 10.0 mi North 9.2 mph - N/A   Mostly Cloudy
11:55 AM 67.5 °F 48.7 °F 51% 29.96 in 10.0 mi North 10.4 mph 17.3 mph N/A   Mostly Cloudy
12:15 PM 68.7 °F 49.3 °F 50% 29.96 in 10.0 mi NNE 12.7 mph 18.4 mph N/A   Mostly Cloudy
12:35 PM 69.3 °F 49.3 °F 49% 29.96 in 10.0 mi NNW 9.2 mph - N/A   Scattered Clouds
12:55 PM 69.4 °F 49.3 °F 49% 29.97 in 10.0 mi NNW 6.9 mph - N/A   Mostly Cloudy
1:15 PM 69.8 °F 48.4 °F 46% 29.97 in 10.0 mi NNW 6.9 mph - N/A   Mostly Cloudy
1:35 PM 71.4 °F 49.1 °F 45% 29.97 in 10.0 mi North 8.1 mph - N/A   Mostly Cloudy
1:55 PM 70.9 °F 48.4 °F 45% 29.97 in 10.0 mi NNW 6.9 mph - N/A   Mostly Cloudy
2:15 PM 70.5 °F 49.6 °F 47% 29.97 in 10.0 mi North 8.1 mph - N/A   Mostly Cloudy
2:35 PM 71.1 °F 48.9 °F 45% 29.98 in 10.0 mi North 6.9 mph - N/A   Mostly Cloudy
2:55 PM 70.0 °F 49.6 °F 48% 29.97 in 10.0 mi NNW 4.6 mph - N/A   Mostly Cloudy
3:15 PM 71.8 °F 48.7 °F 44% 29.97 in 10.0 mi North 10.4 mph - N/A   Mostly Cloudy
3:35 PM 73.0 °F 49.3 °F 43% 29.97 in 10.0 mi NNE 9.2 mph - N/A   Mostly Cloudy
3:55 PM 72.9 °F 48.9 °F 43% 29.97 in 10.0 mi North 9.2 mph - N/A   Scattered Clouds
4:15 PM 73.2 °F 49.5 °F 43% 29.96 in 10.0 mi North 8.1 mph - N/A   Scattered Clouds
4:35 PM 72.7 °F 48.4 °F 42% 29.97 in 10.0 mi North 4.6 mph - N/A   Clear
4:55 PM 71.8 °F 48.7 °F 44% 29.96 in 10.0 mi NNW 9.2 mph - N/A   Scattered Clouds
5:15 PM 73.6 °F 48.7 °F 41% 29.96 in 10.0 mi North 8.1 mph - N/A   Scattered Clouds
5:35 PM 73.0 °F 49.1 °F 43% 29.96 in 10.0 mi NE 5.8 mph - N/A   Clear
5:55 PM 73.8 °F 48.6 °F 41% 29.96 in 10.0 mi North 8.1 mph - N/A   Mostly Cloudy
6:15 PM 73.0 °F 48.6 °F 42% 29.96 in 10.0 mi NE 6.9 mph - N/A   Scattered Clouds
6:35 PM 73.2 °F 48.0 °F 41% 29.96 in 10.0 mi North 6.9 mph - N/A   Scattered Clouds
6:55 PM 72.9 °F 48.0 °F 41% 29.96 in 10.0 mi North 6.9 mph - N/A   Scattered Clouds
7:15 PM 72.3 °F 48.2 °F 42% 29.96 in 10.0 mi North 8.1 mph - N/A   Clear
7:35 PM 70.7 °F 48.7 °F 46% 29.97 in 10.0 mi North 5.8 mph - N/A   Clear
7:55 PM 70.3 °F 49.1 °F 47% 29.97 in 10.0 mi North 3.5 mph - N/A   Clear
8:15 PM 68.7 °F 50.4 °F 52% 29.98 in 10.0 mi Calm Calm - N/A   Clear
8:35 PM 66.6 °F 50.9 °F 57% 29.98 in 10.0 mi North 3.5 mph - N/A   Clear
8:55 PM 63.3 °F 53.2 °F 70% 29.98 in 10.0 mi Calm Calm - N/A   Clear
9:15 PM 58.1 °F 54.3 °F 87% 29.98 in 10.0 mi Calm Calm - N/A   Clear
9:35 PM 56.7 °F 53.8 °F 90% 29.99 in 10.0 mi Calm Calm - N/A   Clear
9:55 PM 55.4 °F 54.7 °F 97% 30.00 in 10.0 mi Calm Calm - N/A   Clear
10:15 PM 54.3 °F 54.0 °F 99% 30.00 in 10.0 mi North 4.6 mph - N/A   Clear
10:35 PM 56.5 °F 53.1 °F 88% 30.00 in 10.0 mi NNE 3.5 mph - N/A   Clear
10:55 PM 59.4 °F 51.8 °F 76% 30.01 in 10.0 mi NNE 5.8 mph - N/A   Clear
11:15 PM 58.8 °F 51.3 °F 76% 30.02 in 10.0 mi NNE 3.5 mph - N/A   Clear
11:35 PM 51.8 °F 51.1 °F 97% 30.02 in 10.0 mi Calm Calm - N/A   Clear
11:55 PM 52.0 °F 52.0 °F 100% 30.02 in 10.0 mi Calm Calm - N/A   Clear